DELTA 1 DEB, 2706

Orbit data source: Space-Track

DELTA 1 DEB, 2706 is space debris in SSO originally from a launch on Thu, 26 Jan 1967 UTC launched from the Air Force Western Test Range (AFWTR). Debris objects in space refer to the collection of defunct objects orbiting the Earth. Examples of debris include non-operational satellites, rocket bodies, and fragments generated from explosions, collisions, or faulty payload assembly.

Loading next visibility...
Identifier
2706, 1967-006C
Orbit
SSO
Last TLE update
2 days ago
Origin
Manufacturer
Unknown
Mission
Spacecraft
Bus & Motor
Unknown
Mass
Unknown
Launch date (UTC)
1967-01-26 (58 years ago)
Launch vehicle
Unknown
Launch site
Air Force Western Test Range (AFWTR)
Object type
Payload
Rocket body
Debris
Shape & HBR
Unknown
Radar Cross Section
Small (<0.1 m²)

Expand to show TLE details & history

TLE from 2 days ago
0 DELTA 1 DEB
1 02706U 67006C   25182.02694628 -.00000050  00000-0 -71555-5 0  9994
2 02706 102.2118 202.5145 0035462  11.3513  44.8079 12.60920748688299
Epoch: 2025-07-01T00:38Z
TLE epoch observation values (Epoch: 2025-07-01T00:38:48.158Z)
Latitude
54.6349°
Longitude
-104.17773°
Altitude
1,408.373 km
Speed
7.17 km/s
True Right ascension
12h 19m 24s
True Declination
54° 29' 10"
Sunlit
Object was in daylight at epoch
Visualization orbit readout
Latitude
19.9436°
Longitude
-88.68936°
Altitude
1,394.406 km
Speed
7.177 km/s
Apparent Right ascension
10h 38m 33s
Apparent Declination
-12° 07' 22"
Sunlit
Object is in daylight
Visualization observer readout
Local Sidereal Time
17:32:00
Azimuth
269.032° W
Elevation
-17.943°
Doppler factor
1
Orbital elements
Apogee altitude
1,444.349 km
Perigee altitude
1,389.064 km
Semi-major axis
7,794.844 km
Eccentricity
0.00355
Inclination
102.2118°
RAAN
202.5145°
Arg. of periapsis
11.3513°
True anomaly
Unknown
Mean anomaly
44.8079°
Eccentric anomaly
Unknown
Mean motion
3.15378 °/min
Orbital period
114.15 mins
BSTAR
-0.0000071555
Loading maneuver chart data...
Loading SW <> Apogee altitude chart data...
Loading historical data...
Loading historical data...
Loading historical data...
Loading historical data...
Loading historical data...
Loading historical data...
Loading historical data...
Other satellites on launch #6 in the year 1967 (1967-01-26 UTC)

DELTA 1 DEB Visibility forecast

Observer location: undefined°, undefined°

Span
Click to sort rows by Start time (UTC) header in descending order
Start Az.
Max El. time (UTC)
Max El. Az.
Max El.
End time (UTC)
End Az.
15 mins2025-07-03 13:54:26.618Z27.509° NE2025-07-03 14:01:26.618Z99.559° ESE40.351°2025-07-03 14:09:26.618Z181.75° SSW
12 mins2025-07-03 15:47:26.618Z355.932° N2025-07-03 15:53:26.618Z298.874° NW28.593°2025-07-03 15:59:26.618Z246.169° WSW
7 mins2025-07-03 23:02:26.618Z70.417° E2025-07-03 23:05:26.618Z45.233° ENE15.893°2025-07-03 23:09:26.618Z14.477° NNE
14 mins2025-07-04 00:49:26.618Z149.223° SSE2025-07-04 00:55:26.618Z88.699° E43.637°2025-07-04 01:03:26.618Z346.079° N
10 mins2025-07-04 02:44:26.618Z228.805° WSW2025-07-04 02:48:26.618Z265.139° W20.912°2025-07-04 02:54:26.618Z314.153° NW
|